EZS36FD LICJ-LSGG

Flight info

Callsign EZS36FD
Flight time 1h 38m
Altitude 36000
Route GIANO DCT RONAB DCT KISTO DCT TONDA/N0355F220 DCT AOSTA L615 BANKO
Aircraft A320/M-SDE2E3FGHIJ1RWXYZ/LB1

Departure

Time 2026-05-05 14:28
Airport Falcone–Borsellino Airport (LICJ)

Arrival

Time 2026-05-05 16:06
Airport Geneva International Airport (LSGG)
Time Latitude Longitude Altitude Speed Heading
2026-05-05 14:12 38.18530 13.10558 65 ft 0 kts 337°
2026-05-05 14:19 38.18508 13.10571 65 ft 4 kts 331°
2026-05-05 14:19 38.18485 13.10589 57 ft 4 kts 315°
2026-05-05 14:19 38.18473 13.10615 56 ft 4 kts 263°
2026-05-05 14:20 38.18474 13.10623 65 ft 2 kts 247°
2026-05-05 14:21 38.18472 13.10618 65 ft 3 kts 247°
2026-05-05 14:22 38.18452 13.10556 64 ft 10 kts 247°
2026-05-05 14:22 38.18401 13.10508 60 ft 9 kts 200°
2026-05-05 14:22 38.18340 13.10475 56 ft 13 kts 213°
2026-05-05 14:22 38.18282 13.10370 58 ft 14 kts 208°
2026-05-05 14:23 38.18204 13.10334 61 ft 12 kts 238°
2026-05-05 14:23 38.18168 13.10227 66 ft 14 kts 247°
2026-05-05 14:23 38.18128 13.10108 63 ft 15 kts 248°
2026-05-05 14:23 38.18084 13.09978 62 ft 16 kts 245°
2026-05-05 14:24 38.18041 13.09852 59 ft 15 kts 246°
2026-05-05 14:24 38.18001 13.09733 60 ft 14 kts 247°
2026-05-05 14:24 38.17963 13.09617 59 ft 14 kts 247°
2026-05-05 14:24 38.17924 13.09506 62 ft 14 kts 245°
2026-05-05 14:25 38.17888 13.09397 63 ft 13 kts 247°
2026-05-05 14:25 38.17859 13.09306 67 ft 9 kts 248°
2026-05-05 14:25 38.17835 13.09233 73 ft 10 kts 247°
2026-05-05 14:25 38.17804 13.09139 69 ft 14 kts 246°
2026-05-05 14:26 38.17759 13.09012 62 ft 16 kts 245°
2026-05-05 14:26 38.17689 13.08904 61 ft 16 kts 217°
2026-05-05 14:26 38.17603 13.08823 60 ft 15 kts 217°
2026-05-05 14:26 38.17525 13.08750 60 ft 12 kts 212°
2026-05-05 14:27 38.17478 13.08788 66 ft 9 kts 90°
2026-05-05 14:27 38.17535 13.08959 61 ft 48 kts 66°
2026-05-05 14:27 38.17754 13.09610 69 ft 110 kts 66°
2026-05-05 14:27 38.18121 13.10696 113 ft 152 kts 65°
2026-05-05 14:28 38.18535 13.11926 788 ft 151 kts 66°
2026-05-05 14:28 38.18951 13.13178 1409 ft 162 kts 68°
2026-05-05 14:28 38.19417 13.14573 1733 ft 182 kts 67°
2026-05-05 14:28 38.19939 13.16116 2006 ft 204 kts 67°
2026-05-05 14:29 38.20544 13.17902 2338 ft 229 kts 66°
2026-05-05 14:29 38.21482 13.19645 2794 ft 252 kts 41°
2026-05-05 14:29 38.23045 13.20740 3538 ft 262 kts 23°
2026-05-05 14:29 38.24758 13.21639 4361 ft 269 kts 23°
2026-05-05 14:30 38.26485 13.22546 5172 ft 275 kts 22°
2026-05-05 14:30 38.28297 13.23500 5972 ft 281 kts 22°
2026-05-05 14:30 38.30195 13.24165 6754 ft 287 kts
2026-05-05 14:30 38.32136 13.23857 7551 ft 287 kts 338°
2026-05-05 14:31 38.33971 13.22846 8386 ft 288 kts 331°
2026-05-05 14:31 38.35608 13.21357 9212 ft 286 kts 310°
2026-05-05 14:31 38.36918 13.19447 10038 ft 288 kts 307°
2026-05-05 14:31 38.38242 13.17486 10577 ft 301 kts 307°
2026-05-05 14:32 38.39653 13.15384 10868 ft 322 kts 307°
2026-05-05 14:32 38.41134 13.13185 11466 ft 330 kts 307°
2026-05-05 14:32 38.42641 13.10958 12179 ft 333 kts 307°
2026-05-05 14:32 38.44144 13.08738 12900 ft 337 kts 307°
2026-05-05 14:33 38.45682 13.06467 13624 ft 340 kts 306°
2026-05-05 14:33 38.47232 13.04173 14272 ft 343 kts 307°
2026-05-05 14:33 38.48816 13.01830 14916 ft 345 kts 307°
2026-05-05 14:33 38.50390 12.99501 15551 ft 347 kts 307°
2026-05-05 14:34 38.51949 12.97187 16204 ft 349 kts 307°
2026-05-05 14:34 38.53537 12.94823 16823 ft 352 kts 307°
2026-05-05 14:34 38.55139 12.92441 17466 ft 354 kts 307°
2026-05-05 14:34 38.56748 12.90044 18092 ft 357 kts 307°
2026-05-05 14:35 38.58371 12.87629 18657 ft 359 kts 307°
2026-05-05 14:35 38.60029 12.85158 19180 ft 362 kts 307°
2026-05-05 14:35 38.61651 12.82735 19690 ft 365 kts 307°
2026-05-05 14:35 38.63306 12.80259 20204 ft 368 kts 307°
2026-05-05 14:36 38.64973 12.77762 20762 ft 370 kts 307°
2026-05-05 14:36 38.66676 12.75213 21296 ft 374 kts 307°
2026-05-05 14:36 38.68351 12.72708 21784 ft 377 kts 307°
2026-05-05 14:36 38.70061 12.70145 22278 ft 380 kts 307°
2026-05-05 14:37 38.71783 12.67562 22783 ft 383 kts 307°
2026-05-05 14:37 38.73516 12.64960 23297 ft 385 kts 307°
2026-05-05 14:37 38.75259 12.62339 23725 ft 388 kts 307°
2026-05-05 14:37 38.77012 12.59700 24102 ft 390 kts 307°
2026-05-05 14:38 38.78771 12.57045 24510 ft 392 kts 307°
2026-05-05 14:38 38.80538 12.54377 24901 ft 393 kts 307°
2026-05-05 14:38 38.82316 12.51691 25287 ft 395 kts 307°
2026-05-05 14:38 38.84097 12.49006 25671 ft 397 kts 307°
2026-05-05 14:39 38.85335 12.47205 25917 ft 400 kts 310°
2026-05-05 14:39 38.87451 12.44879 26250 ft 404 kts 322°
2026-05-05 14:39 38.89908 12.43089 26541 ft 411 kts 332°
2026-05-05 14:39 38.92551 12.41658 26829 ft 413 kts 333°
2026-05-05 14:40 38.95216 12.40216 27190 ft 417 kts 332°
2026-05-05 14:40 38.97898 12.38755 27589 ft 418 kts 332°
2026-05-05 14:40 39.00580 12.37282 27946 ft 420 kts 332°
2026-05-05 14:40 39.03271 12.35792 28301 ft 422 kts 331°
2026-05-05 14:41 39.05971 12.34293 28633 ft 424 kts 332°
2026-05-05 14:41 39.08690 12.32788 28961 ft 427 kts 331°
2026-05-05 14:41 39.11426 12.31276 29317 ft 429 kts 332°
2026-05-05 14:41 39.14178 12.29763 29651 ft 431 kts 332°
2026-05-05 14:42 39.16939 12.28242 30009 ft 434 kts 331°
2026-05-05 14:42 39.19722 12.26710 30303 ft 436 kts 331°
2026-05-05 14:42 39.22514 12.25164 30584 ft 436 kts 331°
2026-05-05 14:42 39.25307 12.23615 30835 ft 438 kts 331°
2026-05-05 14:43 39.28110 12.22060 31093 ft 440 kts 331°
2026-05-05 14:43 39.30917 12.20498 31452 ft 438 kts 331°
2026-05-05 14:43 39.33709 12.18949 31786 ft 436 kts 331°
2026-05-05 14:43 39.36488 12.17401 32115 ft 435 kts 331°
2026-05-05 14:44 39.39261 12.15855 32457 ft 433 kts 331°
2026-05-05 14:44 39.42027 12.14318 32763 ft 433 kts 331°
2026-05-05 14:44 39.44800 12.12773 33133 ft 433 kts 331°
2026-05-05 14:44 39.47528 12.11256 33510 ft 432 kts 332°
2026-05-05 14:45 39.50315 12.09709 33886 ft 428 kts 331°
2026-05-05 14:45 39.53053 12.08192 34154 ft 428 kts 331°
2026-05-05 14:45 39.55788 12.06668 34432 ft 428 kts 331°
2026-05-05 14:45 39.58478 12.05157 34719 ft 427 kts 330°
2026-05-05 14:46 39.61199 12.03626 35018 ft 426 kts 331°
2026-05-05 14:46 39.63952 12.02081 35393 ft 424 kts 330°
2026-05-05 14:46 39.66651 12.00566 35710 ft 422 kts 330°
2026-05-05 14:46 39.69339 11.99055 35986 ft 420 kts 330°
2026-05-05 14:47 39.72019 11.97548 36252 ft 419 kts 330°
2026-05-05 14:47 39.74696 11.96039 36500 ft 418 kts 330°
2026-05-05 14:47 39.77361 11.94534 36743 ft 417 kts 330°
2026-05-05 14:47 39.79985 11.93054 36971 ft 416 kts 330°
2026-05-05 14:48 39.82642 11.91561 37190 ft 416 kts 330°
2026-05-05 14:48 39.85292 11.90066 37428 ft 415 kts 330°
2026-05-05 14:48 39.87934 11.88571 37656 ft 413 kts 330°
2026-05-05 14:48 39.90560 11.87053 37885 ft 412 kts 329°
2026-05-05 14:49 39.93172 11.85513 38020 ft 412 kts 329°
2026-05-05 14:49 39.95773 11.83964 38036 ft 411 kts 329°
2026-05-05 14:49 40.00967 11.80870 38038 ft 410 kts 329°
2026-05-05 14:50 40.06168 11.77788 38040 ft 410 kts 329°
2026-05-05 14:50 40.11362 11.74709 38039 ft 410 kts 329°
2026-05-05 14:51 40.16555 11.71626 38036 ft 410 kts 329°
2026-05-05 14:51 40.21741 11.68540 38032 ft 409 kts 329°
2026-05-05 14:52 40.26928 11.65452 38034 ft 410 kts 329°
2026-05-05 14:52 40.32124 11.62358 38038 ft 410 kts 329°
2026-05-05 14:53 40.37313 11.59259 38041 ft 410 kts 328°
2026-05-05 14:53 40.42501 11.56158 38032 ft 410 kts 329°
2026-05-05 14:54 40.47698 11.53045 38031 ft 410 kts 328°
2026-05-05 14:54 40.52892 11.49925 38030 ft 411 kts 329°
2026-05-05 14:55 40.58086 11.46794 38045 ft 411 kts 328°
2026-05-05 14:55 40.63287 11.43662 38041 ft 412 kts 328°
2026-05-05 14:56 40.68491 11.40525 38042 ft 411 kts 328°
2026-05-05 14:56 40.73686 11.37387 38035 ft 411 kts 328°
2026-05-05 14:57 40.78893 11.34231 38054 ft 412 kts 328°
2026-05-05 14:57 40.84099 11.31070 38054 ft 412 kts 328°
2026-05-05 14:58 40.89307 11.27906 38031 ft 412 kts 328°
2026-05-05 14:58 40.94524 11.24736 38025 ft 413 kts 328°
2026-05-05 14:59 40.99742 11.21559 38015 ft 413 kts 328°
2026-05-05 14:59 41.04960 11.18375 38029 ft 413 kts 327°
2026-05-05 15:00 41.09291 11.15721 38017 ft 413 kts 327°
2026-05-05 15:00 41.15388 11.11980 38016 ft 413 kts 327°
2026-05-05 15:01 41.20607 11.08781 38017 ft 413 kts 327°
2026-05-05 15:01 41.25826 11.05574 38035 ft 413 kts 327°
2026-05-05 15:02 41.31040 11.02363 38032 ft 413 kts 327°
2026-05-05 15:02 41.36250 10.99151 38026 ft 412 kts 327°
2026-05-05 15:03 41.41456 10.95917 38023 ft 413 kts 327°
2026-05-05 15:03 41.46660 10.92693 38038 ft 412 kts 327°
2026-05-05 15:04 41.51865 10.89470 38026 ft 412 kts 327°
2026-05-05 15:04 41.57066 10.86237 38021 ft 412 kts 327°
2026-05-05 15:05 41.64866 10.81375 38006 ft 412 kts 327°
2026-05-05 15:06 41.70057 10.78131 38030 ft 412 kts 327°
2026-05-05 15:06 41.75251 10.74877 38016 ft 413 kts 327°
2026-05-05 15:07 41.80449 10.71614 38003 ft 413 kts 327°
2026-05-05 15:07 41.85654 10.68353 38001 ft 413 kts 327°
2026-05-05 15:08 41.90857 10.65082 38001 ft 413 kts 327°
2026-05-05 15:08 41.96061 10.61802 37998 ft 413 kts 327°
2026-05-05 15:09 42.01276 10.58511 37993 ft 414 kts 327°
2026-05-05 15:09 42.06451 10.55234 37992 ft 414 kts 326°
2026-05-05 15:10 42.11673 10.51921 37984 ft 415 kts 327°
2026-05-05 15:10 42.16905 10.48599 37988 ft 416 kts 327°
2026-05-05 15:11 42.22179 10.45242 37987 ft 417 kts 327°
2026-05-05 15:11 42.27423 10.41898 37987 ft 417 kts 327°
2026-05-05 15:12 42.32680 10.38555 37990 ft 417 kts 326°
2026-05-05 15:12 42.37787 10.35006 37987 ft 415 kts 323°
2026-05-05 15:13 42.42815 10.31208 37991 ft 414 kts 323°
2026-05-05 15:13 42.47870 10.27382 37985 ft 414 kts 323°
2026-05-05 15:14 42.52920 10.23632 37996 ft 414 kts 323°
2026-05-05 15:14 42.57986 10.19900 38027 ft 414 kts 323°
2026-05-05 15:15 42.63022 10.16178 37973 ft 415 kts 323°
2026-05-05 15:15 42.68092 10.12414 37968 ft 415 kts 323°
2026-05-05 15:16 42.73162 10.08634 37974 ft 416 kts 323°
2026-05-05 15:16 42.78230 10.04841 37975 ft 416 kts 323°
2026-05-05 15:17 42.83303 10.01039 37979 ft 416 kts 323°
2026-05-05 15:17 42.88387 9.97233 37971 ft 417 kts 323°
2026-05-05 15:18 42.93467 9.93419 37978 ft 417 kts 323°
2026-05-05 15:18 42.98547 9.89594 37981 ft 417 kts 323°
2026-05-05 15:19 43.03630 9.85767 37999 ft 417 kts 323°
2026-05-05 15:19 43.08717 9.81933 38012 ft 418 kts 323°
2026-05-05 15:20 43.13806 9.78077 37991 ft 418 kts 323°
2026-05-05 15:20 43.18904 9.74213 37986 ft 419 kts 323°
2026-05-05 15:21 43.24012 9.70332 37996 ft 420 kts 323°
2026-05-05 15:21 43.28256 9.67107 37988 ft 420 kts 323°
2026-05-05 15:22 43.33369 9.63217 37986 ft 421 kts 323°
2026-05-05 15:22 43.38486 9.59312 37983 ft 421 kts 323°
2026-05-05 15:23 43.43604 9.55393 38010 ft 421 kts 323°
2026-05-05 15:23 43.48714 9.51467 37996 ft 421 kts 323°
2026-05-05 15:24 43.53834 9.47542 37981 ft 421 kts 323°
2026-05-05 15:24 43.58956 9.43601 37985 ft 422 kts 323°
2026-05-05 15:25 43.64089 9.39640 37969 ft 423 kts 323°
2026-05-05 15:25 43.69235 9.35665 37972 ft 425 kts 323°
2026-05-05 15:26 43.74395 9.31664 37971 ft 425 kts 323°
2026-05-05 15:26 43.79552 9.27664 37971 ft 425 kts 323°
2026-05-05 15:27 43.84709 9.23656 37969 ft 426 kts 323°
2026-05-05 15:27 43.89874 9.19639 37977 ft 426 kts 323°
2026-05-05 15:28 43.95041 9.15600 37974 ft 427 kts 323°
2026-05-05 15:28 44.00215 9.11554 37967 ft 427 kts 323°
2026-05-05 15:29 44.05395 9.07500 37994 ft 427 kts 323°
2026-05-05 15:29 44.10588 9.03423 37978 ft 430 kts 323°
2026-05-05 15:30 44.15793 8.99323 37970 ft 430 kts 323°
2026-05-05 15:30 44.21005 8.95213 37964 ft 431 kts 323°
2026-05-05 15:31 44.26225 8.91097 37973 ft 431 kts 323°
2026-05-05 15:31 44.31447 8.86969 37992 ft 432 kts 323°
2026-05-05 15:32 44.36677 8.82820 37982 ft 432 kts 323°
2026-05-05 15:32 44.41903 8.78658 37982 ft 433 kts 323°
2026-05-05 15:33 44.47136 8.74488 37975 ft 433 kts 323°
2026-05-05 15:33 44.52372 8.70309 37991 ft 433 kts 323°
2026-05-05 15:34 44.57613 8.66122 37979 ft 434 kts 323°
2026-05-05 15:34 44.62857 8.61920 37981 ft 434 kts 323°
2026-05-05 15:35 44.68112 8.57710 37996 ft 434 kts 323°
2026-05-05 15:35 44.73350 8.53480 37979 ft 434 kts 323°
2026-05-05 15:36 44.78590 8.49247 37972 ft 434 kts 323°
2026-05-05 15:36 44.83833 8.45026 37971 ft 434 kts 323°
2026-05-05 15:37 44.89069 8.40788 37999 ft 434 kts 323°
2026-05-05 15:37 44.94312 8.36521 37976 ft 436 kts 323°
2026-05-05 15:38 44.99585 8.32226 37967 ft 438 kts 323°
2026-05-05 15:38 45.04866 8.27926 37973 ft 438 kts 323°
2026-05-05 15:39 45.10130 8.23568 37989 ft 436 kts 319°
2026-05-05 15:39 45.14723 8.18163 37978 ft 428 kts 311°
2026-05-05 15:39 45.16943 8.15340 37688 ft 431 kts 311°
2026-05-05 15:40 45.19202 8.12456 36459 ft 444 kts 310°
2026-05-05 15:40 45.21516 8.09501 35592 ft 449 kts 310°
2026-05-05 15:40 45.23846 8.06539 34907 ft 449 kts 310°
2026-05-05 15:40 45.26176 8.03598 34382 ft 446 kts 310°
2026-05-05 15:41 45.28481 8.00684 33824 ft 442 kts 310°
2026-05-05 15:41 45.30761 7.97794 33362 ft 436 kts 309°
2026-05-05 15:41 45.33013 7.94925 32806 ft 432 kts 309°
2026-05-05 15:41 45.35238 7.92082 32229 ft 428 kts 309°
2026-05-05 15:42 45.37435 7.89267 31750 ft 423 kts 309°
2026-05-05 15:42 45.39611 7.86471 31225 ft 419 kts 309°
2026-05-05 15:42 45.41763 7.83703 30740 ft 415 kts 309°
2026-05-05 15:42 45.43892 7.80965 30262 ft 410 kts 308°
2026-05-05 15:43 45.45998 7.78252 29763 ft 406 kts 308°
2026-05-05 15:43 45.48078 7.75571 29299 ft 401 kts 308°
2026-05-05 15:43 45.50131 7.72927 28851 ft 395 kts 308°
2026-05-05 15:43 45.52154 7.70325 28435 ft 388 kts 308°
2026-05-05 15:44 45.54143 7.67764 28006 ft 383 kts 308°
2026-05-05 15:44 45.56108 7.65225 27578 ft 379 kts 308°
2026-05-05 15:44 45.58053 7.62708 27157 ft 374 kts 308°
2026-05-05 15:44 45.59964 7.60223 26740 ft 369 kts 308°
2026-05-05 15:45 45.61845 7.57778 26308 ft 364 kts 309°
2026-05-05 15:45 45.63712 7.55351 25878 ft 361 kts 308°
2026-05-05 15:45 45.65565 7.52944 25446 ft 359 kts 309°
2026-05-05 15:45 45.67414 7.50545 25002 ft 359 kts 309°
2026-05-05 15:46 45.69256 7.48153 24535 ft 356 kts 310°
2026-05-05 15:46 45.71076 7.45789 24080 ft 351 kts 309°
2026-05-05 15:46 45.72875 7.43444 23640 ft 349 kts 309°
2026-05-05 15:46 45.74663 7.41102 23147 ft 349 kts 310°
2026-05-05 15:47 45.76449 7.38764 22701 ft 347 kts 310°
2026-05-05 15:47 45.77546 7.37134 22414 ft 340 kts 302°
2026-05-05 15:47 45.79190 7.33369 21975 ft 329 kts 287°
2026-05-05 15:47 45.79912 7.30290 21967 ft 324 kts 277°
2026-05-05 15:48 45.80249 7.27118 21969 ft 322 kts 271°
2026-05-05 15:48 45.80510 7.23934 21974 ft 322 kts 271°
2026-05-05 15:48 45.80771 7.20759 21964 ft 319 kts 271°
2026-05-05 15:48 45.81029 7.17594 21962 ft 320 kts 271°
2026-05-05 15:49 45.81285 7.14422 21962 ft 320 kts 271°
2026-05-05 15:49 45.81541 7.11245 21957 ft 321 kts 271°
2026-05-05 15:49 45.81818 7.08054 21979 ft 325 kts 276°
2026-05-05 15:49 45.82472 7.04931 21942 ft 331 kts 288°
2026-05-05 15:50 45.83635 7.02039 21948 ft 339 kts 298°
2026-05-05 15:50 45.84975 6.99261 21950 ft 339 kts 298°
2026-05-05 15:50 45.86310 6.96479 21939 ft 338 kts 298°
2026-05-05 15:50 45.87633 6.93707 21560 ft 335 kts 298°
2026-05-05 15:51 45.88944 6.90955 21074 ft 334 kts 298°
2026-05-05 15:51 45.90248 6.88210 20669 ft 332 kts 298°
2026-05-05 15:51 45.91542 6.85477 20259 ft 330 kts 298°
2026-05-05 15:51 45.92828 6.82760 19875 ft 328 kts 298°
2026-05-05 15:52 45.94105 6.80059 19479 ft 326 kts 298°
2026-05-05 15:52 45.95377 6.77369 19111 ft 325 kts 298°
2026-05-05 15:52 45.96642 6.74689 18769 ft 323 kts 298°
2026-05-05 15:52 45.97890 6.72013 18382 ft 323 kts 298°
2026-05-05 15:53 45.99132 6.69328 17967 ft 322 kts 298°
2026-05-05 15:53 46.00368 6.66651 17540 ft 321 kts 298°
2026-05-05 15:53 46.01599 6.63983 17191 ft 319 kts 298°
2026-05-05 15:53 46.02825 6.61330 16839 ft 318 kts 298°
2026-05-05 15:54 46.04048 6.58685 16391 ft 318 kts 299°
2026-05-05 15:54 46.05269 6.56043 16012 ft 316 kts 298°
2026-05-05 15:54 46.06493 6.53427 15700 ft 314 kts 299°
2026-05-05 15:54 46.07717 6.50837 15370 ft 312 kts 299°
2026-05-05 15:55 46.08938 6.48263 15045 ft 310 kts 299°
2026-05-05 15:55 46.10154 6.45702 14751 ft 309 kts 299°
2026-05-05 15:55 46.11367 6.43142 14463 ft 308 kts 299°
2026-05-05 15:55 46.12569 6.40595 14156 ft 307 kts 299°
2026-05-05 15:56 46.13766 6.38059 13825 ft 306 kts 299°
2026-05-05 15:56 46.14957 6.35533 13472 ft 304 kts 299°
2026-05-05 15:56 46.16146 6.33011 13109 ft 305 kts 301°
2026-05-05 15:56 46.17654 6.30848 12784 ft 311 kts 323°
2026-05-05 15:57 46.19686 6.29719 12470 ft 319 kts 348°
2026-05-05 15:57 46.21902 6.29921 12149 ft 324 kts 16°
2026-05-05 15:57 46.23859 6.31464 11795 ft 322 kts 42°
2026-05-05 15:57 46.25465 6.33702 11304 ft 320 kts 44°
2026-05-05 15:58 46.27099 6.35877 10664 ft 318 kts 43°
2026-05-05 15:58 46.28735 6.38024 10071 ft 316 kts 43°
2026-05-05 15:58 46.30358 6.40148 9433 ft 313 kts 43°
2026-05-05 15:58 46.31963 6.42243 8811 ft 308 kts 43°
2026-05-05 15:59 46.33603 6.44189 8203 ft 303 kts 30°
2026-05-05 15:59 46.35540 6.45139 7580 ft 297 kts
2026-05-05 15:59 46.37541 6.44793 7000 ft 287 kts 336°
2026-05-05 15:59 46.39289 6.43429 6373 ft 280 kts 323°
2026-05-05 16:00 46.40639 6.41520 5728 ft 265 kts 294°
2026-05-05 16:00 46.41168 6.39083 5123 ft 249 kts 265°
2026-05-05 16:00 46.40949 6.36610 4492 ft 250 kts 255°
2026-05-05 16:00 46.40267 6.34451 4085 ft 232 kts 224°
2026-05-05 16:01 46.39002 6.33173 4026 ft 207 kts 215°
2026-05-05 16:01 46.38002 6.31873 4012 ft 185 kts 225°
2026-05-05 16:01 46.37143 6.30578 4033 ft 170 kts 225°
2026-05-05 16:01 46.36359 6.29408 4013 ft 155 kts 225°
2026-05-05 16:02 46.35618 6.28310 4016 ft 151 kts 225°
2026-05-05 16:02 46.34887 6.27230 4013 ft 150 kts 225°
2026-05-05 16:02 46.34157 6.26153 3997 ft 153 kts 224°
2026-05-05 16:02 46.33371 6.24992 3766 ft 168 kts 225°
2026-05-05 16:03 46.32525 6.23736 3534 ft 181 kts 225°
2026-05-05 16:03 46.31624 6.22408 3304 ft 190 kts 226°
2026-05-05 16:03 46.30991 6.21477 3114 ft 193 kts 226°
2026-05-05 16:03 46.30070 6.20116 2820 ft 184 kts 225°
2026-05-05 16:04 46.29208 6.18846 2573 ft 169 kts 226°
2026-05-05 16:04 46.28418 6.17684 2350 ft 155 kts 225°
2026-05-05 16:04 46.27698 6.16623 2149 ft 141 kts 227°
2026-05-05 16:04 46.27009 6.15608 1965 ft 139 kts 227°
2026-05-05 16:05 46.26332 6.14604 1739 ft 141 kts 225°
2026-05-05 16:05 46.25659 6.13605 1607 ft 138 kts 227°
2026-05-05 16:05 46.24982 6.12623 1424 ft 138 kts 229°
2026-05-05 16:05 46.24356 6.11701 1372 ft 106 kts 225°
2026-05-05 16:06 46.23948 6.11102 1377 ft 64 kts 225°
2026-05-05 16:06 46.23724 6.10806 1380 ft 32 kts 211°
2026-05-05 16:06 46.23572 6.10717 1383 ft 18 kts 194°
2026-05-05 16:06 46.23483 6.10682 1389 ft 9 kts 195°
2026-05-05 16:07 46.23451 6.10671 1390 ft 1 kts 188°
2026-05-05 16:07 46.23445 6.10671 1391 ft 4 kts 178°
2026-05-05 16:07 46.23392 6.10738 1398 ft 15 kts 134°
2026-05-05 16:07 46.23307 6.10797 1396 ft 14 kts 192°
2026-05-05 16:08 46.23217 6.10734 1393 ft 15 kts 226°
2026-05-05 16:08 46.23138 6.10617 1400 ft 17 kts 225°
2026-05-05 16:08 46.23052 6.10490 1398 ft 15 kts 226°
2026-05-05 16:08 46.23025 6.10451 1401 ft 2 kts 224°
2026-05-05 16:09 46.23003 6.10459 1401 ft 5 kts 139°
2026-05-05 16:09 46.22982 6.10489 1404 ft 3 kts 135°
2026-05-05 16:09 46.22979 6.10493 1393 ft 0 kts 135°